Current Version              Previous Version:    01  02  03  04  05  06  07  08  09  10  11  12  13  14  15  16  17  18  19  20  21  22  23  24  25  26  27  28  29  30  
   31  32  33  34  35  36  37  38  39  40  41  42  43  44  45  46  47  48  49  50  51  52  53  54  55  56  57  58  59  60  

[Printable]
794
ASUS44 KLUB 210401
RWRTX
WEST TEXAS WEATHER ROUNDUP
NATIONAL WEATHER SERVICE LUBBOCK TX
1000 PM CST SAT DEC 20 2014

NOTE: "FAIR" INDICATES FEW OR NO CLOUDS BELOW 12,000 FEET WITH NO
SIGNIFICANT WEATHER AND/OR OBSTRUCTIONS TO VISIBILITY.

TXZ004-006>008-010-012-014-016-OKZ002-210500-
TEXAS PANHANDLE/OKLAHOMA PANHANDLE

CITY           SKY/WX    TMP DP  RH WIND       PRES   REMARKS
AMARILLO       CLEAR     36  34  92 S10       30.00F WCI  28
BORGER         CLEAR     40  34  79 S10       30.00F WCI  33
DALHART        MOCLDY    28  22  78 SW7       29.98S WCI  21
DUMAS          PTCLDY    26  22  84 S9        29.97F WCI  17
GUYMON         CLEAR     32  26  78 S3        29.97F
HEREFORD       CLEAR     36  34  92 S9        30.00S WCI  29
$$

TXZ026-029-035-045-048-210500-
SOUTHERN PANHANDLE/SOUTH PLAINS/ROLLING PLAINS

CITY           SKY/WX    TMP DP  RH WIND       PRES   REMARKS
CHILDRESS      CLOUDY    45  40  82 SE6       30.09R
LUBBOCK        FAIR      39  38  96 S9        30.03F FOG     WCI  33
$$

TXZ052-054-060>062-072-078-127-140-154-169-210500-
PERMIAN BASIN/CONCHO VALLEY/BIG COUNTRY/EDWARDS PLATEAU

CITY           SKY/WX    TMP DP  RH WIND       PRES   REMARKS
ABILENE        CLOUDY    47  40  76 SE16      30.12R
JUNCTION       CLOUDY    47  41  80 E3        30.13R
MIDLAND        CLEAR     46  42  86 S12       30.06R
ODESSA         PTCLDY    45  41  86 S12       30.07R
SAN ANGELO     CLOUDY    48  43  82 E5        30.11R
WINK           CLEAR     44  37  76 SE5       30.05R
$$

TXZ055-058-074-075-080-082-210500-
FAR WEST/SOUTHWEST MOUNTAINS/TRANS PECOS

CITY           SKY/WX    TMP DP  RH WIND       PRES   REMARKS
ALPINE         PTCLDY    44  28  54 SW6       30.14R
DRYDEN           N/A     51  47  86 E5        30.08F
EL PASO        CLEAR     45  28  51 CALM      30.12R
FORT STOCKTON  PTCLDY    45  42  89 SE10      30.06S
MARFA          MOCLDY    34  21  60 SW5       30.11S WCI  30
$$

TXZ014-016-019-021>030-083-210500
TEXAS TECH WEST TEXAS MESONET/TEXAS PANHANDLE/NORTHERN SOUTH PLAINS

CITY           SKY/WX    TMP DP  RH WIND       PRES   REMARKS
ABERNATHY 5ENE   N/A     38  38  99 S9        30.05S WCI  31
AMARILLO 9NNE    N/A     36  34  91 S10       29.99F WCI  28
AMARILLO 7SSE    N/A     35  33  93 S8        30.01F WCI  28
AMHERST 1NE      N/A     33  31  92 S7        30.02F WCI  27
BOOTLEG 11WNW    N/A     27  17  64 SW8       30.00F WCI  19
CANADIAN 6E      N/A     39  38  94 SE12      30.03F WCI  32
CAPROCK CYN SP   N/A     38  36  94 S9        30.05F WCI  31
CHILDRESS 2NNE   N/A     42  39  91 E6        30.08R
CLARENDON 2WSW   N/A     38  34  88 S5        30.04S WCI  34
CLAUDE 12SW      N/A     39  36  87 S8        30.01F WCI  33
DIMMITT 2NE      N/A     32  31  94 S9        30.00F WCI  25
FLOYDADA 2NNE    N/A     39  38  99 S9        30.04S WCI  32
FRIONA 2NE       N/A     31  29  90 S9        30.01R WCI  23
GOODLETT 3W      N/A     41  39  91 SE8       30.08R
HART 3N          N/A     33  32  95 S8        30.01F WCI  27
HEREFORD 2NW     N/A     33  30  90 S7        30.00S WCI  26
MCLEAN 1E        N/A     39  37  94 SE8       30.03S WCI  33
MEMPHIS 1NE      N/A     42  38  84 SE5       30.07S
MULESHOE 2SSW    N/A     36  31  85 S8        30.01S WCI  29
OLTON 6S         N/A     34  31  90 S9        30.02F WCI  26
PALO DURO SP     N/A     38  34  85 S8        30.02F WCI  33
PAMPA 2E         N/A     33  32  98 SE9       30.02F WCI  25
PLAINVIEW 1S     N/A     38  37  99 S10       30.02F WCI  30
SILVERTON 7ESE   N/A     37  36  95 S8        30.04F WCI  31
TULIA 2ENE       N/A     36  35  99 S10       30.02S WCI  28
TURKEY 2WSW      N/A     39  37  92 S8        30.05S WCI  33
UMBARGER 3NNE    N/A     35  33  91 S12       30.00S WCI  27
$$

TXZ033>036-039>041-045>048-210500
TEXAS TECH WEST TEXAS MESONET/SOUTH PLAINS

CITY           SKY/WX    TMP DP  RH WIND       PRES   REMARKS
AIKEN 3WSW       N/A     35  35  99 S9        30.04F WCI  28
ANTON 6SSW       N/A     36  35  94 S8        30.03F WCI  30
BROWNFIELD 2S    N/A     35  33  95 SE7       30.05S WCI  29
DENVR CTY 7WNW   N/A     37  25  64 SW7       30.04S WCI  31
GAIL 2ESE        N/A     44  40  85 SE3       30.07S
LAMESA 2SE       N/A     39  38  97 SE8       30.07S WCI  33
LEVELLAND 4S     N/A     38  36  89 S9        30.03F WCI  32
LUBBOCK 3WNW     N/A     41  38  92 S8        30.05S
MORTON 1ENE      N/A     36  31  82 S8        30.02F WCI  30
ODONNELL 1N      N/A     41  38  92 SE7       30.06S
PLAINS 3N        N/A     36  28  72 S7        30.04S WCI  30
RALLS 1SE        N/A     38  37  97 SE6       30.06S WCI  33
REESE CENTER     N/A     37  36  94 S8        30.04S WCI  31
SEAGRAVES 1SW    N/A     35  31  88 SE1       30.05R
SEMINOLE 2NNE    N/A     37  27  67 SE7       30.05R WCI  31
SLATON 2NE       N/A     38  37  96 SE7       30.05S WCI  33
SNYDER 3E        N/A     45  42  89 SE8       30.07F
SUNDOWN 8SW      N/A     34  32  93 SE8       30.04S WCI  27
TAHOKA 3NNE      N/A     36  35  94 SE7       30.05S WCI  31
WOLFFORTH 6SSW   N/A     38  38  99 S8        30.05R WCI  32
$$

TXZ031-032-036>038-042>044-210500-
TEXAS TECH WEST TEXAS MESONET/ROLLING PLAINS

CITY           SKY/WX    TMP DP  RH WIND       PRES   REMARKS
ASPERMONT 3NE    N/A     41  38  89 SE7       30.09S
FLUVANNA 3WNW    N/A     46  41  84 SE10      30.06F
GRAHAM 5SSW      N/A     43  40  90 SE9       30.05F
GUTHRIE 10WSW    N/A     40  37  89 SE8       30.07S
HASKELL 1NW      N/A     38  37  95 SE2       30.09F
JAYTON 1SSE      N/A     43  39  85 SE8       30.07F
KNOX CITY 3NW    N/A     41  37  86 SE8       30.10S
LK A HENRY 1NW   N/A     43  41  91 S2        30.07S
NORTHFIELD 1S    N/A     42  40  90 SE7       30.07R
ODELL 4ENE       N/A     40  40  97 E10       30.11F WCI  34
PADUCAH 10SW     N/A     41  38  88 S8        30.07S
POST 1NE         N/A     41  39  95 S3        30.06F
SEYMOUR 3NW      N/A     41  39  92 E7        30.12S
SPUR 1W          N/A     40  38  91 SE2       30.06F
WHITE RVR 6NE    N/A     42  39  91 SE7       30.05F
$$

TXZ052-054-060>062-072-078-127-140-154-169-210500-
TEXAS TECH WEST TEXAS MESONET/PERMIAN BASIN/
CONCHO VALLEY/BIG COUNTRY/EDWARDS PLATEAU

CITY           SKY/WX    TMP DP  RH WIND       PRES   REMARKS
COYANOSA 2N      N/A     47  42  84 SE7       30.06R
JUNCTION 1SSW    N/A     48  42  79 SE7       30.14R
MERTZON 3NNE     N/A     46  42  88 CALM      30.12R
SAN ANGELO 7NW   N/A     49  42  76 SE3       30.11S
STRLNG CT 4WSW   N/A     48  43  84 E5        30.10S
ST LAWRNCE 5SW   N/A     47  44  90 S15       30.07F
SWEETWATR 11SW   N/A     45  40  83 SE9       30.10S
WALL 1E          N/A     47  41  78 SE8       30.12R
$$

TXZ055-058-074-075-080-082-210500-
TEXAS TECH WEST TEXAS MESONET/FAR WEST/SOUTHWEST MOUNTAINS/TRANS PECOS

CITY           SKY/WX    TMP DP  RH WIND       PRES   REMARKS
PRSMN GAP BBNP   N/A     47  44  88 N17       30.07S
$$